📊 Raw Sensor Data
Showing records 40351 to 40375 of 84,962 total
| ID | Distance (ft) | Battery V | Battery A | Int Temp (°F) | Int Humid (%) | Ext Temp (°F) | Solar V | RSSI | SNR | Time Stamp |
|---|---|---|---|---|---|---|---|---|---|---|
| 44624 | 15.5 | 3.89 | -5 | 74 | 56 | 72 | 0.80 | -68 | 7 | 06/26/2025 08:45 PM |
| 44623 | 15.5 | 3.88 | -12 | 78 | 57 | 74 | 4.30 | -69 | 8 | 06/26/2025 08:30 PM |
| 44622 | 15.5 | 3.90 | 0 | 84 | 55 | 78 | 4.50 | -69 | 8 | 06/26/2025 08:15 PM |
| 44621 | 15.6 | 3.92 | 0 | 89 | 53 | 83 | 4.50 | -69 | 8 | 06/26/2025 08:00 PM |
| 44620 | 15.6 | 3.99 | 6 | 92 | 53 | 85 | 4.50 | -70 | 8 | 06/26/2025 07:45 PM |
| 44619 | 15.6 | 4.00 | 10 | 93 | 52 | 87 | 4.50 | -70 | 8 | 06/26/2025 07:30 PM |
| 44618 | 15.6 | 4.00 | -9 | 95 | 52 | 88 | 4.60 | -70 | 8 | 06/26/2025 07:15 PM |
| 44617 | 15.6 | 3.97 | 20 | 97 | 52 | 89 | 4.50 | -72 | 8 | 06/26/2025 07:00 PM |
| 44616 | 15.7 | 4.02 | 36 | 98 | 51 | 90 | 4.50 | -71 | 8 | 06/26/2025 06:45 PM |
| 44615 | 15.7 | 3.94 | 0 | 100 | 50 | 91 | 5.10 | -71 | 7 | 06/26/2025 06:30 PM |
| 44614 | 15.7 | 3.94 | 0 | 100 | 50 | 93 | 5.10 | -71 | 7 | 06/26/2025 06:15 PM |
| 44613 | 15.7 | 3.94 | 0 | 101 | 50 | 92 | 5.10 | -72 | 8 | 06/26/2025 06:00 PM |
| 44612 | 15.6 | 3.94 | 0 | 101 | 50 | 92 | 5.10 | -71 | 7 | 06/26/2025 05:45 PM |
| 44611 | 15.6 | 4.03 | 0 | 102 | 49 | 92 | 5.10 | -71 | 8 | 06/26/2025 05:30 PM |
| 44610 | 15.7 | 3.94 | 0 | 103 | 48 | 95 | 5.10 | -71 | 8 | 06/26/2025 05:15 PM |
| 44609 | 15.7 | 3.94 | 0 | 104 | 47 | 95 | 5.10 | -71 | 8 | 06/26/2025 05:00 PM |
| 44608 | 15.7 | 4.02 | 0 | 104 | 46 | 97 | 5.10 | -71 | 8 | 06/26/2025 04:45 PM |
| 44607 | 15.6 | 3.94 | 0 | 104 | 46 | 97 | 5.10 | -74 | 7 | 06/26/2025 04:30 PM |
| 44606 | 15.7 | 3.94 | 0 | 104 | 45 | 96 | 5.10 | -72 | 8 | 06/26/2025 04:15 PM |
| 44605 | 15.7 | 3.94 | 0 | 104 | 44 | 96 | 5.10 | -71 | 7 | 06/26/2025 04:00 PM |
| 44604 | 15.7 | 3.94 | 0 | 103 | 43 | 95 | 5.10 | -72 | 8 | 06/26/2025 03:45 PM |
| 44603 | 15.6 | 3.94 | 0 | 102 | 43 | 95 | 5.10 | -70 | 8 | 06/26/2025 03:30 PM |
| 44602 | 15.6 | 3.94 | 0 | 101 | 43 | 96 | 5.10 | -71 | 8 | 06/26/2025 03:15 PM |
| 44601 | 15.6 | 3.94 | 0 | 101 | 41 | 94 | 5.10 | -70 | 8 | 06/26/2025 03:00 PM |
| 44600 | 15.6 | 4.11 | 0 | 99 | 41 | 92 | 5.10 | -69 | 8 | 06/26/2025 02:45 PM |